• In Russia
  • List of Countries
  • For 7 days
  • Water Temperature
  • Satellite Maps
  • Weather Map
  • Weather Widgets
  • user-avatar
    Login

    Hourly Weather Zaafrana

    Today, 24 January, Thursday

    Time Temperature Precipitation Wind Pressure Humidity
    00:00 +14°C° 0 mm 3 mps 743 mmHg 19%
    01:00 +14°C° 0 mm 3 mps 743 mmHg 16%
    02:00 +14°C° 0 mm 3 mps 743 mmHg 13%
    03:00 +14°C° 0 mm 3 mps 743 mmHg 13%
    04:00 +14°C° 0 mm 3 mps 742 mmHg 12%
    05:00 +14°C° 0 mm 3 mps 742 mmHg 11%
    06:00 +14°C° 0 mm 3 mps 742 mmHg 11%
    07:00 +16°C° 0 mm 3 mps 742 mmHg 11%
    08:00 +17°C° 0 mm 3 mps 743 mmHg 10%
    09:00 +19°C° 0 mm 4 mps 743 mmHg 10%
    10:00 +22°C° 0 mm 5 mps 743 mmHg 10%
    11:00 +24°C° 0 mm 6 mps 743 mmHg 10%
    12:00 +24°C° 0 mm 6 mps 743 mmHg 10%
    13:00 +24°C° 0 mm 6 mps 743 mmHg 10%
    14:00 +24°C° 0 mm 6 mps 743 mmHg 10%
    15:00 +23°C° 0 mm 6 mps 743 mmHg 12%
    16:00 +22°C° 0 mm 5 mps 743 mmHg 13%
    17:00 +20°C° 0 mm 4 mps 743 mmHg 15%
    18:00 +19°C° 0 mm 4 mps 744 mmHg 19%
    19:00 +18°C° 0 mm 3 mps 744 mmHg 23%
    20:00 +16°C° 0 mm 3 mps 745 mmHg 27%
    21:00 +16°C° 0 mm 2 mps 745 mmHg 29%
    22:00 +15°C° 0 mm 2 mps 745 mmHg 32%
    23:00 +15°C° 0 mm 2 mps 746 mmHg 35%

    Tomorrow, 25 January, Friday

    Time Temperature Precipitation Wind Pressure Humidity
    00:00 +14°C° 0 mm 2 mps 746 mmHg 36%
    01:00 +14°C° 0 mm 1 mps 746 mmHg 37%
    02:00 +13°C° 0 mm 1 mps 746 mmHg 39%
    03:00 +13°C° 0 mm 1 mps 746 mmHg 42%
    04:00 +12°C° 0 mm 1 mps 745 mmHg 44%
    05:00 +11°C° 0 mm 1 mps 745 mmHg 47%
    06:00 +12°C° 0 mm 1 mps 745 mmHg 45%
    07:00 +13°C° 0 mm 1 mps 745 mmHg 43%
    08:00 +14°C° 0 mm 1 mps 746 mmHg 40%
    09:00 +16°C° 0 mm 1 mps 746 mmHg 33%
    10:00 +19°C° 0 mm 1 mps 746 mmHg 25%
    11:00 +22°C° 0 mm 1 mps 746 mmHg 17%
    12:00 +23°C° 0 mm 2 mps 745 mmHg 15%
    13:00 +24°C° 0 mm 2 mps 744 mmHg 14%
    14:00 +25°C° 0 mm 3 mps 743 mmHg 12%
    15:00 +23°C° 0 mm 2 mps 743 mmHg 14%
    16:00 +21°C° 0 mm 2 mps 743 mmHg 16%
    17:00 +21°C° 0 mm 1 mps 743 mmHg 19%
    18:00 +20°C° 0 mm 1 mps 743 mmHg 19%
    19:00 +19°C° 0 mm 1 mps 743 mmHg 19%
    20:00 +18°C° 0 mm 1 mps 743 mmHg 19%
    21:00 +16°C° 0 mm 1 mps 743 mmHg 18%
    22:00 +16°C° 0 mm 1 mps 743 mmHg 17%
    23:00 +16°C° 0 mm 1 mps 743 mmHg 16%

    Day after tomorrow, 26 January, Saturday

    Time Temperature Precipitation Wind Pressure Humidity
    00:00 +16°C° 0 mm 1 mps 743 mmHg 15%
    01:00 +15°C° 0 mm 1 mps 743 mmHg 14%
    02:00 +15°C° 0 mm 1 mps 742 mmHg 14%
    03:00 +15°C° 0 mm 1 mps 742 mmHg 14%
    04:00 +15°C° 0 mm 1 mps 742 mmHg 15%
    05:00 +14°C° 0 mm 1 mps 742 mmHg 15%
    06:00 +15°C° 0 mm 1 mps 742 mmHg 16%
    07:00 +16°C° 0 mm 1 mps 742 mmHg 17%
    08:00 +18°C° 0 mm 1 mps 743 mmHg 17%
    09:00 +19°C° 0 mm 2 mps 743 mmHg 16%
    10:00 +23°C° 0 mm 2 mps 743 mmHg 14%
    11:00 +25°C° 0 mm 3 mps 743 mmHg 12%
    12:00 +26°C° 0 mm 3 mps 742 mmHg 12%
    13:00 +27°C° 0 mm 4 mps 741 mmHg 12%
    14:00 +27°C° 0 mm 4 mps 741 mmHg 12%
    15:00 +26°C° 0 mm 4 mps 741 mmHg 12%
    16:00 +25°C° 0 mm 4 mps 741 mmHg 12%
    17:00 +24°C° 0 mm 3 mps 741 mmHg 12%
    18:00 +21°C° 0 mm 3 mps 741 mmHg 13%
    19:00 +20°C° 0 mm 3 mps 742 mmHg 14%
    20:00 +19°C° 0 mm 3 mps 742 mmHg 15%
    21:00 +18°C° 0 mm 3 mps 743 mmHg 17%
    22:00 +18°C° 0 mm 3 mps 743 mmHg 19%
    23:00 +17°C° 0 mm 3 mps 743 mmHg 20%

    27 January, Sunday

    Time Temperature Precipitation Wind Pressure Humidity
    00:00 +16°C° 0 mm 3 mps 743 mmHg 22%
    01:00 +16°C° 0 mm 3 mps 743 mmHg 24%
    02:00 +14°C° 0 mm 3 mps 743 mmHg 27%
    03:00 +14°C° 0 mm 2 mps 743 mmHg 29%
    04:00 +14°C° 0 mm 2 mps 743 mmHg 31%
    05:00 +13°C° 0 mm 2 mps 743 mmHg 34%
    06:00 +14°C° 0 mm 2 mps 743 mmHg 33%
    07:00 +14°C° 0 mm 2 mps 744 mmHg 31%
    08:00 +15°C° 0 mm 2 mps 744 mmHg 30%
    09:00 +16°C° 0 mm 3 mps 744 mmHg 26%
    10:00 +17°C° 0 mm 3 mps 744 mmHg 22%
    11:00 +19°C° 0 mm 4 mps 744 mmHg 18%
    12:00 +19°C° 0 mm 4 mps 743 mmHg 17%
    13:00 +19°C° 0 mm 5 mps 743 mmHg 15%
    14:00 +19°C° 0 mm 6 mps 743 mmHg 13%
    15:00 +17°C° 0 mm 5 mps 743 mmHg 15%
    16:00 +16°C° 0 mm 5 mps 743 mmHg 16%
    17:00 +15°C° 0 mm 5 mps 743 mmHg 18%
    18:00 +14°C° 0 mm 4 mps 743 mmHg 20%
    19:00 +13°C° 0 mm 4 mps 744 mmHg 23%
    20:00 +12°C° 0 mm 3 mps 744 mmHg 25%
    21:00 +12°C° 0 mm 3 mps 745 mmHg 26%
    22:00 +11°C° 0 mm 3 mps 745 mmHg 27%
    23:00 +10°C° 0 mm 3 mps 745 mmHg 28%

    28 January, Monday

    Time Temperature Precipitation Wind Pressure Humidity
    00:00 +10°C° 0 mm 3 mps 745 mmHg 29%
    01:00 +9°C° 0 mm 3 mps 745 mmHg 31%
    02:00 +9°C° 0 mm 3 mps 745 mmHg 32%
    03:00 +8°C° 0 mm 3 mps 745 mmHg 36%
    04:00 +7°C° 0 mm 4 mps 745 mmHg 39%
    05:00 +7°C° 0 mm 4 mps 745 mmHg 43%
    06:00 +7°C° 0 mm 4 mps 746 mmHg 43%
    07:00 +7°C° 0 mm 4 mps 746 mmHg 44%
    08:00 +7°C° 0 mm 4 mps 747 mmHg 45%
    09:00 +9°C° 0 mm 5 mps 747 mmHg 40%
    10:00 +10°C° 0 mm 6 mps 747 mmHg 34%
    11:00 +12°C° 0 mm 7 mps 747 mmHg 29%
    12:00 +12°C° 0 mm 7 mps 747 mmHg 29%
    13:00 +14°C° 0 mm 7 mps 747 mmHg 28%
    14:00 +15°C° 0 mm 7 mps 747 mmHg 28%
    15:00 +14°C° 0 mm 6 mps 747 mmHg 30%
    16:00 +14°C° 0 mm 5 mps 747 mmHg 33%
    17:00 +14°C° 0 mm 4 mps 747 mmHg 36%
    18:00 +13°C° 0 mm 4 mps 748 mmHg 39%
    19:00 +12°C° 0 mm 3 mps 749 mmHg 42%
    20:00 +12°C° 0 mm 2 mps 749 mmHg 45%
    21:00 +12°C° 0 mm 2 mps 749 mmHg 47%
    22:00 +10°C° 0 mm 2 mps 750 mmHg 48%
    23:00 +10°C° 0 mm 2 mps 750 mmHg 50%

    29 January, Tuesday

    Time Temperature Precipitation Wind Pressure Humidity
    00:00 +10°C° 0 mm 1 mps 750 mmHg 52%
    01:00 +10°C° 0 mm 1 mps 750 mmHg 54%
    02:00 +9°C° 0 mm 1 mps 750 mmHg 56%
    03:00 +9°C° 0 mm 1 mps 750 mmHg 59%
    04:00 +8°C° 0 mm 1 mps 749 mmHg 62%
    05:00 +7°C° 0 mm 0 mps 749 mmHg 65%
    06:00 +8°C° 0 mm 0 mps 750 mmHg 61%
    07:00 +9°C° 0 mm 0 mps 750 mmHg 57%
    08:00 +10°C° 0 mm 0 mps 750 mmHg 53%
    09:00 +13°C° 0 mm 1 mps 750 mmHg 48%
    10:00 +14°C° 0 mm 1 mps 750 mmHg 42%
    11:00 +16°C° 0 mm 1 mps 750 mmHg 37%
    12:00 +17°C° 0 mm 2 mps 750 mmHg 34%
    13:00 +18°C° 0 mm 2 mps 749 mmHg 31%
    14:00 +19°C° 0 mm 3 mps 748 mmHg 28%
    15:00 +18°C° 0 mm 3 mps 748 mmHg 29%
    16:00 +17°C° 0 mm 3 mps 748 mmHg 30%
    17:00 +17°C° 0 mm 3 mps 747 mmHg 30%
    18:00 +16°C° 0 mm 2 mps 747 mmHg 33%
    19:00 +15°C° 0 mm 2 mps 747 mmHg 36%
    20:00 +14°C° 0 mm 2 mps 747 mmHg 39%
    21:00 +13°C° 0 mm 2 mps 747 mmHg 43%
    22:00 +12°C° 0 mm 1 mps 746 mmHg 47%
    23:00 +12°C° 0 mm 1 mps 746 mmHg 52%
    Show more